Weather History for KCHK - November, 2012

Change the Weather History Date:

Friday, November 9, 2012

  Actual Average Record
Temperature  
Mean Temperature 69 °F -  
Max Temperature 78 °F 65 °F 89 °F (1980)
Min Temperature 60 °F 42 °F 18 °F (1955)
Cooling Degree Days 4    
Growing Degree Days 19 (Base 50)    
Moisture  
Dew Point 57 °F    
Average Humidity 62    
Maximum Humidity 88    
Minimum Humidity 50    
Precipitation  
Precipitation 0.00 in - - ()
Sea Level Pressure  
Sea Level Pressure 29.87 in    
Wind  
Wind Speed 13 mph (South)    
Max Wind Speed 23 mph    
Max Gust Speed 32 mph    
Visibility 10 miles    
Events      
Averages and records for this station are not official NWS values.
T = Trace of Precipitation, MM = Missing Value Source: NWS Daily Summary

Daily Weather History Graph

Daily Weather History Graph

Search for Another Location

Airport or City:

Trip Planner

Search our weather history database for the weather conditions in past years. The results will help you decide how hot, cold, wet, or windy it might be!

Date:

Astronomy

Nov. 09, 2012 Rise Set
Actual Time 7:01 AM CST 5:29 PM CST
Civil Twilight 6:34 AM CST 5:56 PM CST
Nautical Twilight 6:04 AM CST 6:26 PM CST
Astronomical Twilight 5:34 AM CST 6:56 PM CST
Moon 2:11 AM CST (11/9) 2:34 PM CST (11/9)
Length of Visible Light 11h 22m
Length of Day
10h 28m
Waning Crescent, 23% of the Moon is Illuminated
Nov 9
Waning Crescent
Nov 13
New
Nov 20
First Quarter
Nov 28
Full
Dec 6
Last Quarter

Hourly Weather History & Observations

Time (CST) Temp. Dew Point Humidity Pressure Visibility Wind Dir Wind Speed Gust Speed Precip Events Conditions
12:15 AM 68.0 °F 51.8 °F 56% 29.89 in 10.0 mi South 15.0 mph 26.5 mph N/A   Clear
12:35 AM 68.0 °F 51.8 °F 56% 29.89 in 10.0 mi South 13.8 mph 25.3 mph N/A   Clear
12:55 AM 68.0 °F 51.8 °F 56% 29.89 in 10.0 mi South 12.7 mph 18.4 mph N/A   Clear
1:15 AM 68.0 °F 51.8 °F 56% 29.89 in 10.0 mi South 10.4 mph 19.6 mph N/A   Clear
1:35 AM 68.0 °F 51.8 °F 56% 29.90 in 10.0 mi South 9.2 mph 18.4 mph N/A   Clear
1:55 AM 68.0 °F 53.6 °F 60% 29.90 in 10.0 mi SSE 3.5 mph - N/A   Clear
2:15 AM 68.0 °F 51.8 °F 56% 29.90 in 10.0 mi SSE 3.5 mph - N/A   Clear
2:35 AM 66.2 °F 51.8 °F 60% 29.90 in 10.0 mi SE 5.8 mph - N/A   Clear
2:55 AM 64.4 °F 51.8 °F 64% 29.90 in 10.0 mi ESE 5.8 mph - N/A   Clear
3:15 AM 62.6 °F 50.0 °F 63% 29.90 in 10.0 mi SE 4.6 mph - N/A   Clear
3:35 AM 62.6 °F 50.0 °F 63% 29.90 in 10.0 mi South 9.2 mph - N/A   Scattered Clouds
3:55 AM 62.6 °F 51.8 °F 68% 29.90 in 10.0 mi South 9.2 mph - N/A   Mostly Cloudy
4:15 AM 62.6 °F 51.8 °F 68% 29.90 in 10.0 mi South 8.1 mph - N/A   Mostly Cloudy
4:35 AM 62.6 °F 51.8 °F 68% 29.90 in 10.0 mi South 9.2 mph - N/A   Scattered Clouds
4:55 AM 62.6 °F 51.8 °F 68% 29.91 in 10.0 mi South 10.4 mph - N/A   Scattered Clouds
5:15 AM 62.6 °F 53.6 °F 72% 29.91 in 10.0 mi South 9.2 mph 16.1 mph N/A   Clear
5:35 AM 62.6 °F 53.6 °F 72% 29.91 in 10.0 mi South 9.2 mph - N/A   Clear
5:55 AM 62.6 °F 53.6 °F 72% 29.91 in 10.0 mi South 8.1 mph - N/A   Clear
6:15 AM 60.8 °F 55.4 °F 82% 29.91 in 10.0 mi South 10.4 mph - N/A   Clear
6:35 AM 60.8 °F 55.4 °F 82% 29.91 in 10.0 mi SSE 9.2 mph - N/A   Clear
6:55 AM 60.8 °F 55.4 °F 82% 29.91 in 10.0 mi SSE 9.2 mph - N/A   Clear
7:15 AM 60.8 °F 57.2 °F 88% 29.92 in 10.0 mi South 9.2 mph - N/A   Clear
7:35 AM 60.8 °F 57.2 °F 88% 29.92 in 10.0 mi SSE 10.4 mph - N/A   Clear
7:55 AM 62.6 °F 59.0 °F 88% 29.93 in 10.0 mi SSE 11.5 mph 16.1 mph N/A   Clear
8:15 AM 62.6 °F 59.0 °F 88% 29.93 in 10.0 mi South 16.1 mph 19.6 mph N/A   Scattered Clouds
8:35 AM 66.2 °F 60.8 °F 83% 29.93 in 10.0 mi South 15.0 mph 19.6 mph N/A   Scattered Clouds
8:55 AM 68.0 °F 62.6 °F 83% 29.93 in 10.0 mi South 15.0 mph 20.7 mph N/A   Mostly Cloudy
9:15 AM 68.0 °F 62.6 °F 83% 29.93 in 10.0 mi South 11.5 mph 24.2 mph N/A   Mostly Cloudy
9:35 AM 68.0 °F 60.8 °F 78% 29.93 in 10.0 mi SSW 10.4 mph 24.2 mph N/A   Mostly Cloudy
9:55 AM 68.0 °F 60.8 °F 78% 29.93 in 10.0 mi SSW 16.1 mph 23.0 mph N/A   Mostly Cloudy
10:15 AM 69.8 °F 60.8 °F 73% 29.92 in 10.0 mi South 20.7 mph 25.3 mph N/A   Scattered Clouds
10:35 AM 71.6 °F 60.8 °F 69% 29.92 in 10.0 mi SSW 18.4 mph 24.2 mph N/A   Scattered Clouds
10:55 AM 73.4 °F 62.6 °F 69% 29.91 in 10.0 mi South 19.6 mph 26.5 mph N/A   Scattered Clouds
11:15 AM 73.4 °F 60.8 °F 65% 29.91 in 10.0 mi South 17.3 mph 27.6 mph N/A   Scattered Clouds
11:35 AM 73.4 °F 60.8 °F 65% 29.90 in 10.0 mi South 18.4 mph 25.3 mph N/A   Scattered Clouds
11:55 AM 73.4 °F 60.8 °F 65% 29.89 in 10.0 mi South 20.7 mph 26.5 mph N/A   Scattered Clouds
12:15 PM 73.4 °F 60.8 °F 65% 29.88 in 10.0 mi South 18.4 mph 26.5 mph N/A   Scattered Clouds
12:35 PM 77.0 °F 60.8 °F 57% 29.86 in 10.0 mi South 16.1 mph 26.5 mph N/A   Clear
12:55 PM 77.0 °F 60.8 °F 57% 29.85 in 10.0 mi South 23.0 mph 26.5 mph N/A   Clear
1:15 PM 77.0 °F 59.0 °F 54% 29.84 in 10.0 mi South 18.4 mph 27.6 mph N/A   Clear
1:35 PM 78.8 °F 60.8 °F 54% 29.83 in 10.0 mi South 19.6 mph 27.6 mph N/A   Clear
1:55 PM 78.8 °F 60.8 °F 54% 29.82 in 10.0 mi South 17.3 mph 25.3 mph N/A   Scattered Clouds
2:15 PM 78.8 °F 60.8 °F 54% 29.82 in 10.0 mi South 21.9 mph 28.8 mph N/A   Scattered Clouds
2:35 PM 78.8 °F 59.0 °F 51% 29.81 in 10.0 mi South 21.9 mph 31.1 mph N/A   Clear
2:55 PM 78.8 °F 59.0 °F 51% 29.80 in 10.0 mi South 19.6 mph 32.2 mph N/A   Clear
3:15 PM 78.8 °F 59.0 °F 51% 29.80 in - South 19.6 mph 28.8 mph N/A   Clear
3:35 PM 78.8 °F 59.0 °F 51% 29.80 in - South 20.7 mph 28.8 mph N/A   Clear
3:55 PM 78.8 °F 59.0 °F 51% 29.79 in - South 23.0 mph 27.6 mph N/A   Clear
4:15 PM 78.8 °F 59.0 °F 51% 29.79 in - South 23.0 mph 29.9 mph N/A   Clear
4:35 PM 78.8 °F 59.0 °F 51% 29.79 in - South 20.7 mph 27.6 mph N/A   Clear
4:55 PM 78.8 °F 59.0 °F 51% 29.79 in - South 17.3 mph 29.9 mph N/A   Clear
5:15 PM 77.0 °F 57.2 °F 50% 29.80 in - South 15.0 mph 31.1 mph N/A   Clear
5:35 PM 77.0 °F 57.2 °F 50% 29.80 in - South 15.0 mph 23.0 mph N/A   Clear
5:55 PM 77.0 °F 59.0 °F 54% 29.80 in - South 18.4 mph 23.0 mph N/A   Clear
6:15 PM 77.0 °F 57.2 °F 50% 29.81 in - South 16.1 mph 25.3 mph N/A   Clear
6:35 PM 75.2 °F 55.4 °F 50% 29.81 in - South 17.3 mph 23.0 mph N/A   Clear
6:55 PM 73.4 °F 55.4 °F 53% 29.82 in - South 15.0 mph - N/A   Clear
7:15 PM 73.4 °F 55.4 °F 53% 29.82 in - South 13.8 mph 20.7 mph N/A   Clear
7:35 PM 73.4 °F 55.4 °F 53% 29.83 in - South 16.1 mph 23.0 mph N/A   Clear
7:55 PM 73.4 °F 55.4 °F 53% 29.83 in - South 13.8 mph 21.9 mph N/A   Clear
8:15 PM 73.4 °F 55.4 °F 53% 29.83 in - South 16.1 mph 23.0 mph N/A   Unknown
8:35 PM 73.4 °F 55.4 °F 53% 29.84 in - South 16.1 mph - N/A   Clear
8:55 PM 73.4 °F 55.4 °F 53% 29.84 in - South 15.0 mph 20.7 mph N/A   Clear
9:15 PM 71.6 °F 55.4 °F 57% 29.84 in - South 17.3 mph 25.3 mph N/A   Clear
9:35 PM 71.6 °F 53.6 °F 53% 29.85 in 10.0 mi South 19.6 mph 26.5 mph N/A   Clear
9:55 PM 71.6 °F 53.6 °F 53% 29.86 in 10.0 mi South 15.0 mph 23.0 mph N/A   Scattered Clouds
10:15 PM 71.6 °F 55.4 °F 57% 29.86 in - South 16.1 mph 27.6 mph N/A   Unknown
10:35 PM 71.6 °F 55.4 °F 57% 29.85 in - South 20.7 mph 26.5 mph N/A   Unknown
10:55 PM 71.6 °F 55.4 °F 57% 29.85 in - South 19.6 mph 29.9 mph N/A   Unknown
11:15 PM 71.6 °F 55.4 °F 57% 29.85 in - South 17.3 mph 28.8 mph N/A   Unknown
11:35 PM 69.8 °F 55.4 °F 60% 29.85 in - South 16.1 mph 20.7 mph N/A   Unknown
11:55 PM 68.0 °F 53.6 °F 60% 29.85 in 10.0 mi South 16.1 mph 20.7 mph N/A   Clear